Location: Adamstown South Public School
(32.9318°S, 151.7012°E)
Time: 00:12:34
(UTC+00:00)

Daily predictions for brighter satellites

Satellite Brightness Start Highest point End
(mag) Time Altitude Azimuth Time Altitude Azimuth Time Altitude Azimuth
H-2A R/B 3.1 07:17:19 10° S 07:21:12 54° WSW 07:24:57 10° NNW
ATLAS CENTAUR R/B 3.0 07:18:03 10° S 07:21:38 20° SE 07:25:15 10° E
Cosmos 1943 Rocket 3.3 07:22:45 10° S 07:26:57 21° ESE 07:31:07 10° ENE
STARLINK 1040 4.0 07:25:04 10° S 07:27:04 19° SE 07:29:04 10° E
Cosmos 494 Rocket 4.1 07:22:41 10° N 07:27:41 57° ENE 07:32:45 10° SSE
Cosmos 1725 Rocket 4.3 07:23:13 10° NNE 07:29:10 46° E 07:35:14 10° SSE
STARLINK-1181 4.3 07:26:10 10° NNW 07:29:51 37° NE 07:33:27 11° ESE
STARLINK-1183 4.1 07:30:09 10° NNW 07:33:54 41° NE 07:37:22 12° ESE
Envisat 3.7 07:31:00 10° SSE 07:35:37 33° E 07:40:10 10° NNE
Cosmos 1420 Rocket 4.3 07:30:28 10° SSW 07:35:48 74° WNW 07:41:02 10° N
Okean 1 3.8 07:36:23 10° S 07:40:13 39° E 07:44:01 10° NNE
NOAA 6 4.0 07:36:18 10° SSE 07:41:30 86° ENE 07:46:39 10° NNW
Cosmos 1452 Rocket 3.5 07:36:15 10° SSW 07:41:35 83° ESE 07:46:51 10° NNE
STARLINK-1194 3.8 07:39:19 10° NNW 07:43:12 52° NE 07:46:21 15° ESE
Cosmos 1802 Rocket 4.2 07:37:43 10° N 07:44:11 85° W 07:50:40 10° S
COSMO-SKYMED 1 4.1 07:41:44 10° N 07:45:51 41° W 07:50:02 10° SSW
STARLINK-1193 3.7 07:43:18 10° NNW 07:47:13 58° NE 07:50:13 17° SE
Cosmos 44 4.0 07:42:23 10° N 07:47:23 43° ENE 07:51:49 13° SE
Cosmos 2233 Rocket 4.4 07:44:31 10° NNE 07:50:25 43° E 07:56:23 10° SSE
STARLINK-1184 3.6 07:47:15 10° NNW 07:51:13 64° NE 07:54:05 18° SE
AQUARIUS 4.5 07:48:15 10° SSE 07:52:38 45° E 07:56:57 10° N
Shenzhou-11 Module 3.1 07:50:33 10° WSW 07:52:57 35° NW 07:55:18 10° NE
Cosmos 371 Rocket 3.8 07:48:20 10° SSW 07:53:10 66° WNW 07:57:56 10° N
NOSS 3-4 (A) 3.6 07:47:02 10° SSW 07:53:47 55° SE 07:59:51 10° NE
NOSS 3-4 (C) 3.7 07:47:08 10° SSW 07:53:52 54° SE 07:59:56 10° NE
SMAP 3.2 07:50:34 10° SSE 07:55:12 55° E 07:59:46 10° N
STARLINK-1127 3.5 07:51:15 10° NW 07:55:14 71° NE 07:57:57 20° SE
STARLINK-1142 3.5 07:55:17 10° NW 07:59:17 78° NE 08:01:50 22° SE
Cosmos 2297 3.8 07:53:39 10° SSW 07:59:20 82° WNW 08:04:58 10° NNE
Cosmos 405 Rocket 2.9 07:59:41 10° NNE 08:03:15 45° E 08:05:39 19° SSE
STARLINK-1137 3.5 07:59:22 10° NW 08:03:24 86° NE 08:05:48 24° SE
Cosmos 2369 Rocket 2.8 07:59:05 10° S 08:04:14 32° ESE 08:09:19 10° NE
Meteor 2-4 Rocket 4.1 08:00:32 10° S 08:05:49 39° ESE 08:10:53 10° NE
STARLINK-1195 3.5 08:03:33 10° NW 08:07:35 86° SW 08:09:50 25° SE
Meteor 1-5 Rocket 4.4 08:04:48 10° N 08:10:35 55° E 08:16:28 10° SSE
Cosmos 304 Rocket 3.7 08:06:05 10° SSW 08:10:57 82° ESE 08:15:44 10° NNE
Okean-O 4.0 08:11:48 21° ENE 08:11:48 21° ENE 08:14:35 10° NNE
Cosmos 1184 Rocket 2.6 08:08:23 10° N 08:11:40 83° E 08:14:01 18° S
STARLINK-1152 3.6 08:07:49 10° NW 08:11:52 78° SW 08:13:57 27° SE
CZ-4B R/B 3.7 08:08:15 10° S 08:13:46 64° WSW 08:19:20 10° NNW
NOAA 12 4.0 08:10:17 10° SSE 08:15:34 67° ENE 08:20:46 10° N
Tsikada Rocket 3.9 08:10:48 10° S 08:17:11 72° E 08:23:25 10° NNE
Atlas Centaur 2 3.6 08:11:01 10° NW 08:17:37 41° NNE 08:22:16 22° E
H-2A R/B 4.2 08:14:11 10° S 08:17:51 38° WSW 08:21:29 10° NW
Meteor 1-19 Rocket 4.1 08:14:02 10° S 08:19:33 88° W 08:25:06 10° N
ATLAS 2AS CENTAUR R/B 2.7 08:12:45 10° SSW 08:19:37 83° ESE 08:27:03 10° NNE
STARLINK-43 3.2 08:17:52 10° SW 08:21:37 71° SE 08:22:47 41° ENE
Cosmos 1110 Rocket 3.9 08:16:20 10° SSW 08:21:41 73° ESE 08:26:55 10° NNE
IRS-1C Rocket 4.2 08:18:24 17° SSE 08:22:27 55° E 08:27:35 10° N
STARLINK-28 4.5 08:21:00 10° SSW 08:22:49 25° S 08:22:49 25° S
CZ-4 R/B 3.8 08:27:09 11° NE 08:27:09 11° NE 08:27:26 10° NE
STARLINK-1176 4.1 08:21:44 10° WNW 08:25:50 56° SW 08:27:32 32° SSE
Cosmos 1869 Rocket 4.2 08:22:21 10° NNW 08:26:38 55° W 08:31:02 10° S
OAO 3 Rocket 3.4 08:22:47 10° WNW 08:27:41 63° NNE 08:29:19 40° E
Cosmos 1733 Rocket 3.6 08:25:36 10° NNE 08:28:59 37° ENE 08:28:59 37° ENE
ARGOS Delta rocket 4.2 08:31:12 40° ESE 08:32:06 45° E 08:36:45 10° N
Cosmos 1331 Rocket 3.8 08:27:47 10° SSW 08:33:02 84° ESE 08:38:11 10° NNE
BREEZE-M DEB (TANK) 2.6 08:25:38 10° NW 08:33:05 65° SW 08:33:53 47° SSE
STARLINK-1146 4.3 08:29:44 10° WNW 08:33:34 46° SW 08:34:44 35° S
STARLINK-1179 4.5 08:31:48 10° WNW 08:35:49 45° SW 08:37:07 34° S
STARLINK-1147 4.4 08:33:28 10° WNW 08:37:16 43° SW 08:38:17 35° S
BREEZE-M DEB (TANK) 3.0 08:34:48 10° SW 08:37:45 65° SE 08:38:34 52° E
Meteor 1-4 Rocket 3.9 08:34:51 10° SSW 08:38:13 39° W 08:41:29 10° NNW
Cosmos 1943 3.6 08:36:41 10° NNW 08:42:13 60° WSW 08:46:28 18° S
YAOGAN 6 3.9 08:40:39 16° SSW 08:43:14 39° WSW 08:46:36 10° NW
Helios 1A Rocket 3.4 08:41:23 24° S 08:43:43 59° WSW 08:47:43 10° NNW
YAOGAN 3 4.5 08:43:27 50° SSE 08:44:36 87° E 08:48:59 10° NNW
Cosmos 1536 3.8 08:41:37 10° N 08:44:05 35° NNE 08:44:05 35° NNE
Okean O Rocket 4.0 08:43:28 10° SSW 08:46:57 22° WSW 08:50:24 10° WNW
Cosmos 1302 Rocket 4.2 08:42:20 10° S 08:46:43 50° SE 08:46:43 50° SE
Atlas 2A Centaur Rocket 3.2 08:46:13 10° WNW 08:48:23 25° N 08:48:23 25° N
Longmarch 3A Rocket 3.0 08:45:06 10° W 08:57:55 50° N 08:58:45 44° NNE
CZ-3C R/B 4.0 08:55:33 10° NNW 08:58:05 14° NNE 09:02:46 10° NE
ATLAS CENTAUR R/B 2.9 08:56:10 10° SW 09:00:46 43° WNW 09:05:19 10° N
OAO 2 Rocket 4.3 08:58:40 10° NW 09:03:01 36° NNE 09:03:01 36° NNE
COSMOS 2455 2.8 09:00:49 10° SSW 09:06:16 66° SSE 09:06:16 66° SSE
Cosmos 2263 4.1 09:01:27 10° SSW 09:06:57 79° SSE 09:06:57 79° SSE
Meteor 1-13 Rocket 4.1 09:03:04 10° S 09:08:40 85° W 09:14:13 10° N
Cosmos 1943 Rocket 3.3 09:05:38 10° SW 09:10:49 42° WNW 09:15:58 10° N
Centaur D AC-25 4.1 09:24:53 10° W 09:41:05 44° NNW 09:42:14 40° N
Cosmos 2369 Rocket 4.0 09:43:13 10° SW 09:48:05 29° WNW 09:52:55 10° NNW
CZ-3A R/B 4.0 09:27:24 10° W 09:56:14 52° NNW 09:57:57 48° N
Atlas Centaur 2 3.6 09:59:13 10° WNW 10:04:52 51° NW 10:04:52 51° NW
